Time,TemperatureF,DewpointF,PressureIn,WindDirection,WindDirectionDegrees,WindSpeedMPH,WindSpeedGustMPH,Humidity,HourlyPrecipIn,Conditions,Clouds,dailyrainin,SoftwareType,DateUTC
2013-07-04 00:01:00,59.0,54.0,-100.00,SSW,205,0.0,0.0,83,-99.99,,,-99.99,,2013-07-04 05:01:00,
2013-07-04 01:11:00,62.0,56.0,-100.00,South,175,2.0,5.0,81,-99.99,,,-99.99,,2013-07-04 06:11:00,
2013-07-04 01:34:00,62.0,56.0,-100.00,South,175,2.0,5.0,81,-99.99,,,-99.99,,2013-07-04 06:34:00,
2013-07-04 01:43:00,62.0,56.0,-100.00,South,175,2.0,5.0,81,-99.99,,,-99.99,,2013-07-04 06:43:00,
2013-07-04 01:53:00,62.0,56.0,-100.00,South,175,2.0,5.0,81,-99.99,,,-99.99,,2013-07-04 06:53:00,
2013-07-04 02:02:00,62.0,56.0,-100.00,South,175,2.0,5.0,81,-99.99,,,-99.99,,2013-07-04 07:02:00,
2013-07-04 02:11:00,61.0,56.0,-100.00,ESE,120,1.0,2.0,83,-99.99,,,-99.99,,2013-07-04 07:11:00,
2013-07-04 02:34:00,61.0,56.0,-100.00,ESE,120,1.0,2.0,83,-99.99,,,-99.99,,2013-07-04 07:34:00,
2013-07-04 02:43:00,61.0,56.0,-100.00,ESE,120,1.0,2.0,83,-99.99,,,-99.99,,2013-07-04 07:43:00,
2013-07-04 02:52:00,61.0,56.0,-100.00,ESE,120,1.0,2.0,83,-99.99,,,-99.99,,2013-07-04 07:52:00,
2013-07-04 03:02:00,61.0,56.0,-100.00,ESE,120,1.0,2.0,83,-99.99,,,-99.99,,2013-07-04 08:02:00,
2013-07-04 03:10:00,60.0,56.0,-100.00,SE,125,1.0,3.0,87,-99.99,,,-99.99,,2013-07-04 08:10:00,
2013-07-04 03:33:00,60.0,56.0,-100.00,SE,125,1.0,3.0,87,-99.99,,,-99.99,,2013-07-04 08:33:00,
2013-07-04 03:43:00,60.0,56.0,-100.00,SE,125,1.0,3.0,87,-99.99,,,-99.99,,2013-07-04 08:43:00,
2013-07-04 03:53:00,60.0,56.0,-100.00,SE,125,1.0,3.0,87,-99.99,,,-99.99,,2013-07-04 08:53:00,
2013-07-04 04:02:00,60.0,56.0,-100.00,SE,125,1.0,3.0,87,-99.99,,,-99.99,,2013-07-04 09:02:00,
2013-07-04 04:33:00,60.0,56.0,-100.00,SSE,165,1.0,3.0,89,-99.99,,,-99.99,,2013-07-04 09:33:00,
2013-07-04 04:42:00,60.0,56.0,-100.00,SSE,165,1.0,3.0,89,-99.99,,,-99.99,,2013-07-04 09:42:00,
2013-07-04 04:52:00,60.0,56.0,-100.00,SSE,165,1.0,3.0,89,-99.99,,,-99.99,,2013-07-04 09:52:00,
2013-07-04 05:01:00,60.0,56.0,-100.00,SSE,165,1.0,3.0,89,-99.99,,,-99.99,,2013-07-04 10:01:00,
2013-07-04 05:10:00,59.0,56.0,-100.00,South,170,2.0,5.0,93,-99.99,,,-99.99,,2013-07-04 10:10:00,
2013-07-04 05:34:00,59.0,56.0,-100.00,South,170,2.0,5.0,93,-99.99,,,-99.99,,2013-07-04 10:34:00,
2013-07-04 05:43:00,59.0,56.0,-100.00,South,170,2.0,5.0,93,-99.99,,,-99.99,,2013-07-04 10:43:00,
2013-07-04 05:53:00,59.0,56.0,-100.00,South,170,2.0,5.0,93,-99.99,,,-99.99,,2013-07-04 10:53:00,
2013-07-04 06:02:00,59.0,56.0,-100.00,South,170,2.0,5.0,93,-99.99,,,-99.99,,2013-07-04 11:02:00,
2013-07-04 06:10:00,60.0,57.0,-100.00,South,185,2.0,6.0,89,-99.99,,,-99.99,,2013-07-04 11:10:00,
2013-07-04 06:34:00,60.0,57.0,-100.00,South,185,2.0,6.0,89,-99.99,,,-99.99,,2013-07-04 11:34:00,
2013-07-04 06:43:00,60.0,57.0,-100.00,South,185,2.0,6.0,89,-99.99,,,-99.99,,2013-07-04 11:43:00,
2013-07-04 06:53:00,60.0,57.0,-100.00,South,185,2.0,6.0,89,-99.99,,,-99.99,,2013-07-04 11:53:00,
2013-07-04 07:02:00,60.0,57.0,-100.00,South,185,2.0,6.0,89,-99.99,,,-99.99,,2013-07-04 12:02:00,
2013-07-04 07:10:00,66.0,55.0,-100.00,SSW,200,1.0,7.0,68,-99.99,,,-99.99,,2013-07-04 12:10:00,
2013-07-04 07:43:00,66.0,55.0,-100.00,SSW,200,1.0,7.0,68,-99.99,,,-99.99,,2013-07-04 12:43:00,
2013-07-04 07:52:00,66.0,55.0,-100.00,SSW,200,1.0,7.0,68,-99.99,,,-99.99,,2013-07-04 12:52:00,
2013-07-04 08:02:00,66.0,55.0,-100.00,SSW,200,1.0,7.0,68,-99.99,,,-99.99,,2013-07-04 13:02:00,
2013-07-04 08:11:00,71.0,56.0,-100.00,SE,140,1.0,7.0,59,-99.99,,,-99.99,,2013-07-04 13:11:00,
2013-07-04 08:33:00,71.0,56.0,-100.00,SE,140,1.0,7.0,59,-99.99,,,-99.99,,2013-07-04 13:33:00,
2013-07-04 08:43:00,71.0,56.0,-100.00,SE,140,1.0,7.0,59,-99.99,,,-99.99,,2013-07-04 13:43:00,
2013-07-04 08:53:00,71.0,56.0,-100.00,SE,140,1.0,7.0,59,-99.99,,,-99.99,,2013-07-04 13:53:00,
2013-07-04 09:02:00,71.0,56.0,-100.00,SE,140,1.0,7.0,59,-99.99,,,-99.99,,2013-07-04 14:02:00,
2013-07-04 10:10:00,77.0,57.0,-100.00,SSE,165,2.0,10.0,49,-99.99,,,-99.99,,2013-07-04 15:10:00,
2013-07-04 10:33:00,77.0,57.0,-100.00,SSE,165,2.0,10.0,49,-99.99,,,-99.99,,2013-07-04 15:33:00,
2013-07-04 10:43:00,77.0,57.0,-100.00,SSE,165,2.0,10.0,49,-99.99,,,-99.99,,2013-07-04 15:43:00,
2013-07-04 10:53:00,77.0,57.0,-100.00,SSE,165,2.0,10.0,49,-99.99,,,-99.99,,2013-07-04 15:53:00,
2013-07-04 11:02:00,77.0,57.0,-100.00,SSE,165,2.0,10.0,49,-99.99,,,-99.99,,2013-07-04 16:02:00,
2013-07-04 11:10:00,81.0,58.0,-100.00,West,270,0.0,0.0,45,-99.99,,,-99.99,,2013-07-04 16:10:00,
2013-07-04 11:33:00,81.0,58.0,-100.00,West,270,0.0,0.0,45,-99.99,,,-99.99,,2013-07-04 16:33:00,
2013-07-04 11:43:00,81.0,58.0,-100.00,West,270,0.0,0.0,45,-99.99,,,-99.99,,2013-07-04 16:43:00,
2013-07-04 11:52:00,81.0,58.0,-100.00,West,270,0.0,0.0,45,-99.99,,,-99.99,,2013-07-04 16:52:00,
2013-07-04 12:01:00,81.0,58.0,-100.00,West,270,0.0,0.0,45,-99.99,,,-99.99,,2013-07-04 17:01:00,
2013-07-04 12:11:00,85.0,56.0,-100.00,SW,220,0.0,0.0,38,-99.99,,,-99.99,,2013-07-04 17:11:00,
2013-07-04 12:34:00,85.0,56.0,-100.00,SW,220,0.0,0.0,38,-99.99,,,-99.99,,2013-07-04 17:34:00,
2013-07-04 12:43:00,85.0,56.0,-100.00,SW,220,0.0,0.0,38,-99.99,,,-99.99,,2013-07-04 17:43:00,
2013-07-04 12:53:00,85.0,56.0,-100.00,SW,220,0.0,0.0,38,-99.99,,,-99.99,,2013-07-04 17:53:00,
2013-07-04 13:01:00,85.0,56.0,-100.00,SW,220,0.0,0.0,38,-99.99,,,-99.99,,2013-07-04 18:01:00,
2013-07-04 13:33:00,85.0,56.0,-100.00,South,175,6.0,13.0,37,-99.99,,,-99.99,,2013-07-04 18:33:00,
2013-07-04 13:43:00,85.0,56.0,-100.00,South,175,6.0,13.0,37,-99.99,,,-99.99,,2013-07-04 18:43:00,
2013-07-04 13:52:00,85.0,56.0,-100.00,South,175,6.0,13.0,37,-99.99,,,-99.99,,2013-07-04 18:52:00,
2013-07-04 14:02:00,85.0,56.0,-100.00,South,175,6.0,13.0,37,-99.99,,,-99.99,,2013-07-04 19:02:00,
2013-07-04 14:34:00,86.0,54.0,-100.00,South,170,0.0,0.0,34,-99.99,,,-99.99,,2013-07-04 19:34:00,
2013-07-04 14:43:00,86.0,54.0,-100.00,South,170,0.0,0.0,34,-99.99,,,-99.99,,2013-07-04 19:43:00,
2013-07-04 14:53:00,86.0,54.0,-100.00,South,170,0.0,0.0,34,-99.99,,,-99.99,,2013-07-04 19:53:00,
2013-07-04 15:01:00,86.0,54.0,-100.00,South,170,0.0,0.0,34,-99.99,,,-99.99,,2013-07-04 20:01:00,
2013-07-04 15:11:00,86.0,53.0,-100.00,South,175,6.0,19.0,33,-99.99,,,-99.99,,2013-07-04 20:11:00,
2013-07-04 15:34:00,86.0,53.0,-100.00,South,175,6.0,19.0,33,-99.99,,,-99.99,,2013-07-04 20:34:00,
2013-07-04 15:42:00,86.0,53.0,-100.00,South,175,6.0,19.0,33,-99.99,,,-99.99,,2013-07-04 20:42:00,
2013-07-04 15:53:00,86.0,53.0,-100.00,South,175,6.0,19.0,33,-99.99,,,-99.99,,2013-07-04 20:53:00,
2013-07-04 16:01:00,86.0,53.0,-100.00,South,175,6.0,19.0,33,-99.99,,,-99.99,,2013-07-04 21:01:00,
2013-07-04 16:32:00,88.0,53.0,-100.00,South,175,6.0,15.0,30,-99.99,,,-99.99,,2013-07-04 21:32:00,
2013-07-04 16:43:00,88.0,53.0,-100.00,South,175,6.0,15.0,30,-99.99,,,-99.99,,2013-07-04 21:43:00,
2013-07-04 16:53:00,88.0,53.0,-100.00,South,175,6.0,15.0,30,-99.99,,,-99.99,,2013-07-04 21:53:00,
2013-07-04 17:02:00,88.0,53.0,-100.00,South,175,6.0,15.0,30,-99.99,,,-99.99,,2013-07-04 22:02:00,
2013-07-04 18:33:00,85.0,50.0,-100.00,SSE,165,4.0,12.0,30,-99.99,,,-99.99,,2013-07-04 23:33:00,
2013-07-04 18:43:00,85.0,50.0,-100.00,SSE,165,4.0,12.0,30,-99.99,,,-99.99,,2013-07-04 23:43:00,
2013-07-04 18:52:00,85.0,50.0,-100.00,SSE,165,4.0,12.0,30,-99.99,,,-99.99,,2013-07-04 23:52:00,
2013-07-04 19:01:00,85.0,50.0,-100.00,SSE,165,4.0,12.0,30,-99.99,,,-99.99,,2013-07-05 00:01:00,
2013-07-04 20:32:00,82.0,52.0,-100.00,East,95,2.0,7.0,35,-99.99,,,-99.99,,2013-07-05 01:32:00,
2013-07-04 20:42:00,82.0,52.0,-100.00,East,95,2.0,7.0,35,-99.99,,,-99.99,,2013-07-05 01:42:00,
2013-07-04 20:52:00,82.0,52.0,-100.00,East,95,2.0,7.0,35,-99.99,,,-99.99,,2013-07-05 01:52:00,
2013-07-04 21:02:00,82.0,52.0,-100.00,East,95,2.0,7.0,35,-99.99,,,-99.99,,2013-07-05 02:02:00,
2013-07-04 21:10:00,76.0,53.0,-100.00,ESE,110,2.0,6.0,44,-99.99,,,-99.99,,2013-07-05 02:10:00,
2013-07-04 21:32:00,76.0,53.0,-100.00,ESE,110,2.0,6.0,44,-99.99,,,-99.99,,2013-07-05 02:32:00,
2013-07-04 21:43:00,76.0,53.0,-100.00,ESE,110,2.0,6.0,44,-99.99,,,-99.99,,2013-07-05 02:43:00,
2013-07-04 21:52:00,76.0,53.0,-100.00,ESE,110,2.0,6.0,44,-99.99,,,-99.99,,2013-07-05 02:52:00,
2013-07-04 22:02:00,76.0,53.0,-100.00,ESE,110,2.0,6.0,44,-99.99,,,-99.99,,2013-07-05 03:02:00,
2013-07-04 22:33:00,75.0,53.0,-100.00,ESE,110,4.0,9.0,46,-99.99,,,-99.99,,2013-07-05 03:33:00,
2013-07-04 22:42:00,75.0,53.0,-100.00,ESE,110,4.0,9.0,46,-99.99,,,-99.99,,2013-07-05 03:42:00,
2013-07-04 22:52:00,75.0,53.0,-100.00,ESE,110,4.0,9.0,46,-99.99,,,-99.99,,2013-07-05 03:52:00,
2013-07-04 23:01:00,75.0,53.0,-100.00,ESE,110,4.0,9.0,46,-99.99,,,-99.99,,2013-07-05 04:01:00,
2013-07-04 23:10:00,73.0,53.0,-100.00,SE,140,2.0,6.0,50,-99.99,,,-99.99,,2013-07-05 04:10:00,
2013-07-04 23:33:00,73.0,53.0,-100.00,SE,140,2.0,6.0,50,-99.99,,,-99.99,,2013-07-05 04:33:00,
2013-07-04 23:43:00,73.0,53.0,-100.00,SE,140,2.0,6.0,50,-99.99,,,-99.99,,2013-07-05 04:43:00,
2013-07-04 23:53:00,73.0,53.0,-100.00,SE,140,2.0,6.0,50,-99.99,,,-99.99,,2013-07-05 04:53:00,